CZ-6A DEB, 54969

Orbit data source: Space-Track

CZ-6A DEB, 54969 is space debris in SSO originally from a launch on Fri, 11 Nov 2022 UTC launched from the Taiyaun Space Center, China (TSC). Debris objects in space refer to the collection of defunct objects orbiting the Earth. Examples of debris include non-operational satellites, rocket bodies, and fragments generated from explosions, collisions, or faulty payload assembly.

Loading next visibility...
Identifier
54969, 2022-151TJ
Orbit
SSO
Country
Flag of CNCN / PRC
Related business
Manufacturer
SAST
Mission
Spacecraft
Bus & Motor
Unknown
Mass
Unknown
Launch date (UTC)
2022-11-11 (4 years ago)
Launch vehicle
Unknown
Launch site
Taiyaun Space Center, China (TSC)
Object type
Payload
Rocket body
Debris
Shape & HBR
Unknown shape, 0.2 m
Radar Cross Section
Medium (>0.1 m² and <1 m²)

Expand to show TLE details & history
Last TLE update: 19 hours ago

TLE from 19 hours ago
0 CZ-6A DEB
1 54969U 22151TJ  26262.76174425  .00000094  00000-0  77734-4 0  9993
2 54969  98.8597 262.0726 0048530  60.7986 299.8026 14.09658053197983
Epoch: 2026-09-19T18:16Z
TLE epoch observation values (Epoch: 2026-09-19T18:16:54.703Z)
Latitude
-0.00002°
Longitude
-10.82096°
Altitude
846.103 km
Speed
7.439 km/s
True Right ascension
17h 28m 17s
True Declination
0° 00' 00"
Sunlit
Object was in daylight at epoch
Visualization orbit readout
Latitude
Unknown
Longitude
Unknown
Altitude
Unknown
Speed
Unknown
Apparent Right ascension
Unknown
Apparent Declination
Unknown
Sunlit
N/A
Visualization observer readout
Local Sidereal Time
06:07:41
Azimuth
Unknown
Elevation
Unknown
Doppler factor
Unknown
Orbital elements
Apogee altitude
892.837 km
Perigee altitude
822.606 km
Semi-major axis
7,235.859 km
Eccentricity
0.00485
Inclination
98.8597°
RAAN
262.0726°
Arg. of periapsis
60.7986°
True anomaly
299.31858°
Mean anomaly
299.8026°
Eccentric anomaly
299.56074°
Mean motion
3.52621 °/min
Orbital period
102.09 mins
BSTAR
0.000077734
Loading maneuver chart data...
Computing Atmospheric mass density...
Loading historical data...
Loading historical data...
Loading historical data...
Loading historical data...
Loading historical data...
Loading historical data...
Loading historical data...

Documentation

Showing up to 5 results
|